Tracking 19288 objects as of 20-Nov-2018
HD Live streaming from Space Station
objects crossing your sky now

INTELSAT 602

Track INTELSAT 602 now!
INTELSAT 602 is classified as:


NORAD ID: 20315
Int'l Code: 1989-087A
Perigee: 36,136.7 km
Apogee: 36,168.4 km
Inclination: 12.7 °
Period: 1,454.5 minutes
Semi major axis: 42523 km
RCS: 19.9526 m2 (large)
Launch date: October 27, 1989
Source: International Telecommunications Satellite Organization (ITSO)
Launch site: FRENCH GUIANA (FRGUI)

Inclined orbit; Indian Ocean region; C-band and Ku-band broadcasting.
aabbcc
Your satellite tracking list
Your tracking list is empty




NASA's NSSDC Master Catalog

Two Line Element Set (TLE):
1 20315U 89087A   18323.75004181 -.00000131  00000-0  00000+0 0  9991
2 20315  12.6751  27.8623 0003730 219.9522 188.1626  0.99005342103947
Source of the keplerian elements: AFSPC